^^
Saratoga-Weather Station Historical Data
 
Daily Summary for December 04, 2020 Units:  Metric    English   Both
Daily Weekly Monthly Yearly
  Current: High: Low: Average:
Temperature: 4.9 °C 4.9 °C 1.8 °C 2.7 °C
Dew Point: -6 °C -5.8 °C -6.9 °C -6.3 °C
Humidity: 45% 55% 45% 52%
Wind Speed: 20.2km/h 31.1km/h 0.9km/h 14.4km/h
Wind Gust: 22.5km/h 38.6km/h - -
WindSE - - ESE
Pressure: 995.9 hPa 1003.9 hPa 995.9 hPa -
Precipitation: 3.3 mm      
 
 
Tabular Data for December 04, 2020
Time Temperature Dew Point Pressure Wind Wind Speed Wind Gust Humidity Rainfall Rate (Hourly) solar
00:04 1.8 °C -6.3 °C 1003.9 hPa WSW 2.7 km/h 4.8 km/h 55% 0.0 mm 0 W/m2
00:09 1.8 °C -6.3 °C 1003.8 hPa WSW 3.7 km/h 3.2 km/h 55% 0.0 mm 0 W/m2
00:14 1.8 °C -6.3 °C 1003.8 hPa WSW 0.9 km/h 4.8 km/h 55% 0.0 mm 0 W/m2
00:19 1.8 °C -6.3 °C 1003.9 hPa WSW 2.2 km/h 3.2 km/h 55% 0.0 mm 0 W/m2
00:24 1.8 °C -6.3 °C 1003.9 hPa WSW 1.8 km/h 3.2 km/h 55% 0.0 mm 0 W/m2
00:29 1.9 °C -6.2 °C 1003.8 hPa WNW 3.3 km/h 3.7 km/h 55% 0.0 mm 0 W/m2
00:34 1.9 °C -6.2 °C 1003.7 hPa NW 4.2 km/h 4.8 km/h 55% 0.0 mm 0 W/m2
00:38 1.9 °C -6.2 °C 1003.6 hPa NW 2.9 km/h 4.8 km/h 55% 0.0 mm 0 W/m2
00:44 1.9 °C -6.3 °C 1003.6 hPa NW 3.8 km/h 3.2 km/h 54.6% 0.0 mm 0 W/m2
00:49 1.9 °C -6.4 °C 1003.6 hPa NW 4.5 km/h 4.8 km/h 54.2% 0.0 mm 0 W/m2
00:54 1.9 °C -6.5 °C 1003.6 hPa NW 5.4 km/h 4.8 km/h 54% 0.0 mm 0 W/m2
00:59 1.9 °C -6.5 °C 1003.4 hPa North 5.5 km/h 6.4 km/h 54% 0.0 mm 0 W/m2
01:04 1.9 °C -6.4 °C 1003.5 hPa North 3.2 km/h 6.4 km/h 54% 0.0 mm 0 W/m2
01:09 1.9 °C -6.4 °C 1003.4 hPa North 4.5 km/h 4.8 km/h 54% 0.0 mm 0 W/m2
01:14 1.9 °C -6.4 °C 1003.4 hPa North 5.6 km/h 6.4 km/h 54% 0.0 mm 0 W/m2
01:19 1.9 °C -6.4 °C 1003.5 hPa North 3.7 km/h 5.1 km/h 54% 0.0 mm 0 W/m2
01:24 2 °C -6.4 °C 1003.4 hPa North 6.8 km/h 6.9 km/h 54% 0.0 mm 0 W/m2
01:29 1.9 °C -6.4 °C 1003.4 hPa North 6.2 km/h 8 km/h 54% 0.0 mm 0 W/m2
01:34 1.9 °C -6.4 °C 1003.3 hPa North 8 km/h 8.2 km/h 54% 0.0 mm 0 W/m2
01:39 1.9 °C -6.4 °C 1003.3 hPa North 6.8 km/h 9.7 km/h 54% 0.0 mm 0 W/m2
01:44 1.9 °C -6.4 °C 1003.3 hPa North 6.3 km/h 8 km/h 54% 0.0 mm 0 W/m2
01:48 1.9 °C -6.4 °C 1003.3 hPa North 7.4 km/h 9.7 km/h 54% 0.0 mm 0 W/m2
01:54 1.9 °C -6.4 °C 1003.2 hPa NNE 7.7 km/h 8 km/h 54% 0.0 mm 0 W/m2
01:59 1.9 °C -6.4 °C 1003.0 hPa NNE 9 km/h 11.3 km/h 54% 0.0 mm 0 W/m2
02:04 1.9 °C -6.5 °C 1003.0 hPa North 9.2 km/h 9.7 km/h 54% 0.0 mm 0 W/m2
02:09 1.8 °C -6.5 °C 1003.0 hPa NNE 8.3 km/h 9.7 km/h 54% 0.0 mm 0 W/m2
02:14 1.8 °C -6.5 °C 1003.0 hPa NNE 8.8 km/h 9.7 km/h 54% 0.0 mm 0 W/m2
02:19 1.9 °C -6.5 °C 1003.0 hPa NNE 7.7 km/h 9.7 km/h 54% 0.0 mm 0 W/m2
02:24 1.9 °C -6.4 °C 1003.1 hPa NNE 5.9 km/h 9.7 km/h 54% 0.0 mm 0 W/m2
02:29 1.9 °C -6.4 °C 1003.1 hPa NNE 5.8 km/h 8 km/h 54% 0.0 mm 0 W/m2
02:34 1.9 °C -6.4 °C 1003.1 hPa NNE 8.3 km/h 9.7 km/h 54% 0.0 mm 0 W/m2
02:39 1.9 °C -6.4 °C 1003.0 hPa NNE 4.8 km/h 11.3 km/h 54% 0.0 mm 0 W/m2
02:44 2 °C -6.4 °C 1003.0 hPa NNE 5.8 km/h 5.5 km/h 54% 0.0 mm 0 W/m2
02:49 2 °C -6.4 °C 1002.9 hPa NE 6.6 km/h 9.7 km/h 54% 0.0 mm 0 W/m2
02:54 2 °C -6.3 °C 1002.8 hPa NE 5.6 km/h 8 km/h 54% 0.0 mm 0 W/m2
02:59 2 °C -6.3 °C 1002.7 hPa ENE 7.1 km/h 8 km/h 54% 0.0 mm 0 W/m2
03:04 2.1 °C -6.3 °C 1002.8 hPa NE 5.2 km/h 9.7 km/h 54% 0.0 mm 0 W/m2
03:09 2.1 °C -6.3 °C 1002.8 hPa East 8.6 km/h 7.4 km/h 54% 0.0 mm 0 W/m2
03:13 2.1 °C -6.2 °C 1002.5 hPa NE 9.8 km/h 11.3 km/h 54% 0.0 mm 0 W/m2
03:19 2.2 °C -6.2 °C 1002.5 hPa ENE 9.3 km/h 14.5 km/h 54% 0.0 mm 0 W/m2
03:24 2.2 °C -6.2 °C 1002.3 hPa ENE 8.7 km/h 9.7 km/h 54% 0.0 mm 0 W/m2
03:29 2.2 °C -6.2 °C 1002.3 hPa ENE 10.2 km/h 11.3 km/h 54% 0.0 mm 0 W/m2
03:34 2.2 °C -6.2 °C 1002.2 hPa East 8.9 km/h 12.9 km/h 54% 0.0 mm 0 W/m2
03:39 2.2 °C -6.2 °C 1002.1 hPa East 12.5 km/h 12.9 km/h 54% 0.0 mm 0 W/m2
03:44 2.2 °C -6.2 °C 1002.0 hPa East 11.8 km/h 16.1 km/h 54% 0.0 mm 0 W/m2
03:49 2.2 °C -6.2 °C 1001.9 hPa East 12.1 km/h 12.9 km/h 54% 0.2 mm 0 W/m2
03:53 2.2 °C -6.2 °C 1001.8 hPa ESE 9.2 km/h 12.9 km/h 54% 0.2 mm 0 W/m2
04:14 2.2 °C -6.2 °C 1001.8 hPa ESE 8.9 km/h 5.6 km/h 54% 0.2 mm 0 W/m2
04:19 2.2 °C -6.2 °C 1001.8 hPa ESE 10.8 km/h 16.1 km/h 54% 0.2 mm 0 W/m2
04:24 2.2 °C -6.2 °C 1001.8 hPa ESE 7.2 km/h 12.9 km/h 54% 0.2 mm 0 W/m2
04:29 2.2 °C -6.2 °C 1001.8 hPa ESE 8.9 km/h 8 km/h 54% 0.2 mm 0 W/m2
04:34 2.1 °C -6.2 °C 1001.7 hPa ESE 12.4 km/h 11.3 km/h 54% 0.2 mm 0 W/m2
04:39 2.1 °C -6.2 °C 1001.6 hPa ESE 7.9 km/h 14.5 km/h 54% 0.5 mm 0 W/m2
04:44 2.1 °C -6.2 °C 1001.6 hPa ESE 8.9 km/h 11.3 km/h 54% 0.5 mm 0 W/m2
04:49 2.1 °C -6.2 °C 1001.6 hPa ESE 9.2 km/h 11.3 km/h 54% 0.2 mm 0 W/m2
04:54 2.1 °C -6.2 °C 1001.6 hPa ESE 4.1 km/h 9.7 km/h 54% 0.2 mm 0 W/m2
04:59 2.1 °C -6.2 °C 1001.6 hPa ESE 8.5 km/h 8 km/h 54% 0.2 mm 0 W/m2
05:04 2.1 °C -6.3 °C 1001.5 hPa East 10 km/h 11.3 km/h 54% 0.2 mm 0 W/m2
05:09 2 °C -6.3 °C 1001.2 hPa East 10 km/h 12.9 km/h 54% 0.2 mm 0 W/m2
05:14 2 °C -6.3 °C 1001.2 hPa East 8.2 km/h 12.9 km/h 54% 0.2 mm 0 W/m2
05:18 2 °C -6.3 °C 1001.2 hPa ESE 6.3 km/h 9.7 km/h 54% 0.2 mm 0 W/m2
05:24 2 °C -6.3 °C 1001.0 hPa ESE 8.2 km/h 9.5 km/h 54% 0.5 mm 0 W/m2
05:29 2 °C -6.3 °C 1001.0 hPa ESE 6.7 km/h 11.3 km/h 54% 0.5 mm 0 W/m2
05:33 2 °C -6.3 °C 1001.0 hPa East 8.7 km/h 8 km/h 54% 0.5 mm 0 W/m2
05:39 2 °C -6.3 °C 1000.8 hPa East 10 km/h 11.3 km/h 54% 0.5 mm 0 W/m2
05:44 2 °C -6.3 °C 1000.6 hPa East 13.3 km/h 14.5 km/h 54% 0.2 mm 0 W/m2
05:49 2 °C -6.3 °C 1000.4 hPa East 16.1 km/h 16.1 km/h 54% 0.2 mm 0 W/m2
05:54 2 °C -6.3 °C 1000.2 hPa ENE 13.1 km/h 24.1 km/h 54% 0.2 mm 0 W/m2
05:59 2 °C -6.3 °C 1000.0 hPa East 19.3 km/h 19.3 km/h 54% 0.2 mm 0 W/m2
06:04 2 °C -6.3 °C 999.9 hPa East 14.9 km/h 22.5 km/h 54% 0.2 mm 0 W/m2
06:09 2 °C -6.3 °C 999.9 hPa East 15.5 km/h 19.3 km/h 54% 0.2 mm 0 W/m2
06:14 2 °C -6.3 °C 999.9 hPa East 13 km/h 16.1 km/h 54% 0.2 mm 0 W/m2
06:19 2 °C -6.3 °C 999.8 hPa East 15.4 km/h 13.8 km/h 54% 0.2 mm 0 W/m2
06:23 2.1 °C -6.3 °C 1000.1 hPa East 15.4 km/h 20.9 km/h 54% 0.2 mm 0 W/m2
06:29 2.1 °C -6.2 °C 1000.1 hPa East 15.4 km/h 19.3 km/h 54% 0.0 mm 0 W/m2
06:34 2.2 °C -6.3 °C 999.9 hPa ENE 16.6 km/h 19.3 km/h 53.7% 0.0 mm 0 W/m2
06:39 2.2 °C -6.4 °C 999.6 hPa East 15.9 km/h 20.9 km/h 53% 0.0 mm 0 W/m2
06:44 2.3 °C -6.3 °C 999.5 hPa East 17.5 km/h 20.9 km/h 53% 0.0 mm 0 W/m2
06:49 2.3 °C -6.3 °C 999.6 hPa ENE 14.2 km/h 20.9 km/h 53% 0.0 mm 0 W/m2
06:54 2.4 °C -6.2 °C 999.6 hPa East 12.7 km/h 16.1 km/h 53% 0.0 mm 0 W/m2
06:59 2.5 °C -6.1 °C 999.7 hPa ESE 15.9 km/h 15 km/h 53% 0.0 mm 0 W/m2
07:04 2.5 °C -6.1 °C 999.7 hPa ESE 17.5 km/h 19.3 km/h 53% 0.0 mm 0 W/m2
07:09 2.6 °C -6 °C 999.6 hPa ESE 17.3 km/h 22.5 km/h 53% 0.0 mm 0 W/m2
07:13 2.6 °C -6 °C 999.6 hPa ESE 19.2 km/h 22.5 km/h 53% 0.0 mm 0 W/m2
07:19 2.7 °C -5.9 °C 999.6 hPa ESE 19.2 km/h 24.1 km/h 53% 0.0 mm 0 W/m2
07:24 2.7 °C -5.9 °C 999.5 hPa ESE 17.6 km/h 24.1 km/h 53% 0.0 mm 0 W/m2
07:28 2.8 °C -5.9 °C 999.4 hPa East 19.2 km/h 22.5 km/h 53% 0.0 mm 0 W/m2
07:34 2.8 °C -5.9 °C 999.3 hPa ESE 22.7 km/h 22.5 km/h 53% 0.0 mm 0 W/m2
07:39 2.8 °C -5.8 °C 999.3 hPa ESE 20.8 km/h 27.4 km/h 53% 0.0 mm 0 W/m2
07:44 2.8 °C -5.8 °C 999.3 hPa East 20 km/h 25.7 km/h 53% 0.0 mm 0 W/m2
07:49 2.8 °C -5.8 °C 999.1 hPa East 17.4 km/h 27.4 km/h 53% 0.0 mm 0 W/m2
07:54 2.8 °C -5.8 °C 999.1 hPa ESE 20.2 km/h 24.1 km/h 53% 0.0 mm 0 W/m2
07:59 2.8 °C -5.8 °C 999.1 hPa ESE 21.2 km/h 25.7 km/h 53% 0.2 mm 0 W/m2
08:04 2.8 °C -5.8 °C 999.2 hPa ESE 19.1 km/h 27.4 km/h 53% 0.2 mm 0 W/m2
08:09 2.8 °C -5.8 °C 999.0 hPa ESE 25.7 km/h 22.5 km/h 53% 0.2 mm 0 W/m2
08:14 2.8 °C -6 °C 999.0 hPa ESE 21 km/h 29 km/h 52.4% 0.2 mm 0 W/m2
08:19 2.8 °C -6.1 °C 998.9 hPa ESE 20.9 km/h 22.5 km/h 52% 0.2 mm 5 W/m2
08:24 2.8 °C -6.1 °C 998.8 hPa East 27.4 km/h 32.2 km/h 52% 0.2 mm 9 W/m2
08:29 2.8 °C -6 °C 998.8 hPa East 20.4 km/h 37 km/h 52% 0.2 mm 9 W/m2
08:34 2.9 °C -6 °C 998.9 hPa East 20.9 km/h 27.4 km/h 52% 0.5 mm 9 W/m2
08:39 2.9 °C -5.9 °C 998.9 hPa ESE 17.3 km/h 25.7 km/h 52% 0.5 mm 7 W/m2
08:44 3 °C -5.9 °C 998.8 hPa ESE 22.2 km/h 20 km/h 52% 0.5 mm 9 W/m2
08:49 3 °C -6 °C 998.8 hPa ESE 17.6 km/h 33.8 km/h 51.5% 0.5 mm 5 W/m2
08:54 3.1 °C -6.1 °C 998.7 hPa SE 21.8 km/h 24.1 km/h 51% 0.5 mm 9 W/m2
08:59 3.1 °C -6.1 °C 998.6 hPa ESE 20.1 km/h 25.7 km/h 51% 0.5 mm 9 W/m2
09:04 3.1 °C -6 °C 998.5 hPa ESE 21.1 km/h 25.7 km/h 51% 0.2 mm 11 W/m2
09:09 3.2 °C -6 °C 998.4 hPa ESE 18.2 km/h 25.7 km/h 51% 0.2 mm 16 W/m2
09:14 3.2 °C -6.1 °C 998.3 hPa ESE 22.9 km/h 24.1 km/h 50.5% 0.2 mm 16 W/m2
09:19 3.2 °C -6 °C 998.4 hPa ESE 24.1 km/h 35.4 km/h 50.7% 0.2 mm 14 W/m2
09:24 3.2 °C -6.2 °C 998.4 hPa ESE 27 km/h 27.4 km/h 50% 0.2 mm 18 W/m2
09:29 3.3 °C -6.2 °C 998.4 hPa ESE 22.2 km/h 37 km/h 50% 0.2 mm 25 W/m2
09:34 3.3 °C -6.2 °C 998.5 hPa SE 30.6 km/h 27.4 km/h 50% 0.2 mm 23 W/m2
09:39 3.3 °C -6.3 °C 998.5 hPa ESE 29.4 km/h 38.6 km/h 49.4% 0.0 mm 23 W/m2
09:44 3.3 °C -6.4 °C 998.7 hPa ESE 27.2 km/h 33.8 km/h 49% 0.0 mm 19 W/m2
09:49 3.3 °C -6.4 °C 998.7 hPa SE 31.1 km/h 35.4 km/h 49% 0.0 mm 18 W/m2
09:54 3.4 °C -6.4 °C 998.8 hPa ESE 28.7 km/h 37 km/h 48.8% 0.0 mm 19 W/m2
09:59 3.4 °C -6.6 °C 998.8 hPa ESE 23.2 km/h 33.8 km/h 48% 0.0 mm 23 W/m2
10:04 3.4 °C -6.6 °C 998.7 hPa ESE 28 km/h 25.7 km/h 48% 0.0 mm 25 W/m2
10:09 3.5 °C -6.8 °C 998.6 hPa ESE 24.6 km/h 35.4 km/h 47.2% 0.0 mm 23 W/m2
10:14 3.5 °C -6.8 °C 998.6 hPa East 25.5 km/h 29 km/h 47% 0.0 mm 23 W/m2
10:19 3.6 °C -6.7 °C 998.5 hPa ESE 26.3 km/h 33.8 km/h 47% 0.0 mm 25 W/m2
10:24 3.6 °C -6.7 °C 998.5 hPa ESE 20.3 km/h 33.8 km/h 46.6% 0.0 mm 26 W/m2
10:29 3.7 °C -6.8 °C 998.4 hPa SE 25 km/h 27.4 km/h 46% 0.0 mm 30 W/m2
10:34 3.8 °C -6.8 °C 998.6 hPa ESE 25.9 km/h 35.4 km/h 46% 0.0 mm 25 W/m2
10:39 3.8 °C -6.7 °C 998.6 hPa ESE 24.8 km/h 32.2 km/h 46% 0.0 mm 18 W/m2
10:44 3.9 °C -6.7 °C 998.6 hPa ESE 21.6 km/h 32.2 km/h 46% 0.0 mm 16 W/m2
10:49 3.9 °C -6.9 °C 998.5 hPa ESE 19 km/h 25.7 km/h 45.1% 0.0 mm 16 W/m2
10:54 3.9 °C -6.9 °C 998.5 hPa ESE 19 km/h 20.9 km/h 45% 0.0 mm 18 W/m2
10:59 4 °C -6.9 °C 998.4 hPa SE 16.1 km/h 25.7 km/h 45% 0.2 mm 18 W/m2
11:04 4 °C -6.7 °C 998.4 hPa SE 21 km/h 20.9 km/h 45.9% 0.2 mm 18 W/m2
11:09 4 °C -6.7 °C 998.3 hPa SE 17.4 km/h 24.1 km/h 45.4% 0.2 mm 19 W/m2
11:14 4.1 °C -6.8 °C 998.2 hPa ESE 17.8 km/h 22.5 km/h 45% 0.5 mm 18 W/m2
11:19 4.1 °C -6.8 °C 998.0 hPa SE 19.6 km/h 24.1 km/h 45% 0.5 mm 23 W/m2
11:24 4.2 °C -6.7 °C 997.9 hPa SE 20.4 km/h 25.7 km/h 45% 0.5 mm 23 W/m2
11:29 4.2 °C -6.6 °C 997.9 hPa SE 21.2 km/h 25.7 km/h 45% 0.5 mm 23 W/m2
11:34 4.3 °C -6.6 °C 997.8 hPa SE 18.3 km/h 22.5 km/h 45% 0.8 mm 23 W/m2
11:39 4.3 °C -6.6 °C 997.7 hPa SE 16.8 km/h 20.9 km/h 45% 1.0 mm 25 W/m2
11:44 4.4 °C -6.5 °C 997.5 hPa SE 17.5 km/h 24.1 km/h 45% 1.0 mm 26 W/m2
11:49 4.4 °C -6.5 °C 997.4 hPa SE 20.1 km/h 25.7 km/h 45% 1.3 mm 28 W/m2
11:54 4.4 °C -6.5 °C 997.3 hPa ESE 16.7 km/h 24.1 km/h 45% 1.3 mm 26 W/m2
11:59 4.5 °C -6.5 °C 997.2 hPa SE 19.3 km/h 20.9 km/h 45% 1.5 mm 28 W/m2
12:04 4.5 °C -6.4 °C 997.0 hPa SE 17.7 km/h 20.9 km/h 45% 1.5 mm 32 W/m2
12:09 4.5 °C -6.4 °C 996.8 hPa ESE 17.4 km/h 20.9 km/h 45% 1.5 mm 32 W/m2
12:14 4.6 °C -6.4 °C 996.5 hPa ESE 17.3 km/h 22.5 km/h 45% 1.5 mm 33 W/m2
12:18 4.6 °C -6.3 °C 996.3 hPa SE 14.7 km/h 19.3 km/h 45% 1.3 mm 32 W/m2
12:24 4.7 °C -6.3 °C 996.3 hPa ESE 15.2 km/h 19.3 km/h 45% 1.3 mm 33 W/m2
12:29 4.7 °C -6.2 °C 996.2 hPa ESE 15.8 km/h 20.9 km/h 45% 1.3 mm 28 W/m2
12:33 4.8 °C -6.2 °C 995.9 hPa SE 20.4 km/h 22.5 km/h 45% 1.3 mm 25 W/m2
12:39 4.8 °C -6.1 °C 996.0 hPa ESE 18 km/h 25.7 km/h 45% 1.3 mm 25 W/m2
12:44 4.9 °C -6.1 °C 995.9 hPa SE 18.1 km/h 20.9 km/h 45% 1.0 mm 23 W/m2
12:49 4.9 °C -6 °C 995.9 hPa SE 20.2 km/h 22.5 km/h 45% 1.0 mm 19 W/m2
Lodi Weather
Compliments of Weather Underground - 2.75 mb